Погода в Бестяхе

Россия / Республика Саха (Якутия)     61°21′52″N   128°52′00″E
темп.,
°C
ветер,
м/с
пор.,
м/с
влажн.,
%
обл.,
%
осадки,
мм/ч
давл.,
гПа
погр.,
м
3 марта, ср
ср300:00−35юв019877 0.0 102319
03:00−35юв019877 0.0 102319
06:00−37в019873 0.0 102219
09:00−33зюз009673 0.0 102128
12:00−26с119076 0.0 1020302
15:00−25ссз118787 0.0 1018437
18:00−30зюз119687 0.0 101919
21:00−32з129993 0.0 101919
4 марта, чт
чт400:00−34зюз239695 0.0 102054
03:00−33з499498 0.0 1020345
06:00−32з4995100 0.1 1019490
09:00−32з4994100 0.3 1019655
12:00−30з5891100 0.2 1020949
15:00−28зсз5890100 0.3 10211094
18:00−29зсз3894100 0.1 1022933
21:00−30зсз3795100 0.2 1024968
5 марта, пт
пт500:00−32зсз3994100 0.1 1026733
03:00−35з3895100 0.1 1027213
06:00−33з31095100 0.0 1028508
09:00−32зсз41091100 0.0 1029676
12:00−29зсз5889100 0.0 1030736
15:00−27зсз5889100 0.1 1029724
18:00−30зсз3993100 0.0 1029297
21:00−32з379673 0.0 1030156
6 марта, сб
сб600:00−32з389644 0.0 1030173
03:00−33зюз379628 0.0 1030153
06:00−34зюз389641 0.0 1030183
09:00−32з379542 0.0 1029245
12:00−26з259259 0.0 1027412
15:00−23з258847 0.0 1025503
18:00−27з119516 0.0 102519
21:00−30ю00968 0.0 102619
7 марта, вс
вс700:00−32ююв01970 0.0 102519
03:00−33вюв11970 0.0 102519
06:00−34в11970 0.0 102519
09:00−29всв11950 0.0 102444
12:00−21всв12870 0.0 1022337
15:00−18св238410 0.0 1021418
18:00−25св239917 0.0 102030
21:00−27в22978 0.0 102125